Regional Weather Roundup
Issued by NWS Albany, NY

Home | Current Version | Previous Version | Text Only | Print | Product List | Glossary On
Versions: 1 2 3 4 5 6 7 8 9 10 11 12 13 14 15 16 17 18 19 20 21 22 23 24 25 26 27 28
000
ASUS41 KALY 230910
RWRALY

NEW YORK STATE HOURLY WEATHER ROUNDUP
NATIONAL WEATHER SERVICE ALBANY NY
500 AM EDT THU MAR 23 2017

NOTE: "FAIR" INDICATES FEW OR NO CLOUDS BELOW 12,000 FEET WITH NO
SIGNIFICANT WEATHER AND/OR NO OBSTRUCTIONS TO VISIBILITY.

NYZ032-033-038>043-046>054-057>066-NYZ062>081-082-084-231000-
EAST


CITY           SKY/WX    TMP DP  RH WIND       PRES   REMARKS
ALBANY         CLEAR     13   0  56 W7        30.49R WCI   3
GLENS FALLS    CLEAR     13  -4  46 NW8       30.47R WCI   2
POUGHKEEPSIE   CLEAR     11   3  70 CALM      30.48R
NEWBURGH       CLEAR     18   9  68 W9        30.47R WCI   6
MONTGOMERY     CLEAR     17   5  59 S5        30.47R WCI  10
WHITE PLAINS   CLEAR     20   5  52 W3        30.45R
ISLIP          CLEAR     22   3  44 NW13G22   30.47R WCI  10
NEW YORK CITY  CLEAR     26   7  44 NW12      30.50R WCI  16
CENTRAL PARK   CLEAR     23   6  48 VRB6      30.52R WCI  16
$$

NYZ005>009-017-018-044>046-055-056-231000-
CENTRAL


CITY           SKY/WX    TMP DP  RH WIND       PRES   REMARKS
FULTON         CLEAR    N/A N/A N/A CALM      30.53R
SYRACUSE       PTCLDY    13   6  74 CALM      30.53R
ROME           CLEAR      4   1  88 CALM      30.53R
ELMIRA         CLEAR     14   5  67 CALM      30.51R
BINGHAMTON     CLEAR     12   5  73 NW5       30.42R WCI   4
MONTICELLO     CLEAR     12   3  67 NW6       30.41R WCI   3
$$

NYZ026>034-041>043-087-231000-
NORTH


CITY           SKY/WX    TMP DP  RH WIND       PRES   REMARKS
WATERTOWN      PTCLDY     4   2  91 E3        30.53R
FORT DRUM      NOT AVBL
MASSENA        CLEAR     10  -2  58 W7        30.52R WCI  -1
SARANAC LAKE   CLEAR    -18 -23  77 CALM      30.36R
PLATTSBURGH    CLEAR     12  -5  46 W5        30.46S WCI   4
$$

NYZ001>004-010>016-019>021-085-231000-
WEST


CITY           SKY/WX    TMP DP  RH WIND       PRES   REMARKS
NIAGARA FALLS  CLEAR     18  12  77 CALM      30.54S
BUFFALO        CLEAR     19  12  74 S3        30.54R
DUNKIRK        CLEAR     16  13  88 CALM      30.56R
JAMESTOWN      CLEAR     18  10  73 NW5       30.45S WCI  11
WELLSVILLE     CLEAR     14   7  73 N3        30.43S
ROCHESTER      CLEAR     16   9  74 SW3       30.54S
PENN YAN       CLEAR     18   7  62 W5        30.51R WCI  11
$$

             KEY
       WCI = WIND CHILL INDEX
       VSB = VISIBILITY
       HX  = HEAT INDEX
$$




USA.gov is the U.S. government's official web portal to all federal, state and local government web resources and services.